Retour au catalogue

CZ-6A DEB

ActifPO
NORAD 60779·DEBRIS·🇨🇳 China

Lancé Aug 6, 2024 depuis Taiyuan Satellite Launch Center

Loading…

Prochains Passages (prochaines 24 heures)

TLE

FraisSource: Space-Track

Époque: Sep 14, 2026, 08:24 UTC

1 60779U 24140FE  26257.35041793  .00009145  00000-0  11080-2 0  9995
2 60779  88.9668 254.6485 0071078 253.7558 105.5839 14.81730214111722

Suivez CZ-6A DEB en temps réel avec AllMySat

Download on the App Store